Location: Laband
(50.3440°N, 18.6237°E)
Time: 09:32:31
(UTC+00:00)

Daily predictions for brighter satellites

Satellite Brightness Start Highest point End
(mag) Time Altitude Azimuth Time Altitude Azimuth Time Altitude Azimuth
Cosmos 2278 Rocket 3.0 17:38:05 10° NW 17:43:38 55° WSW 17:49:08 10° S
STARLINK-1078 3.7 17:40:36 10° WNW 17:44:37 76° SSW 17:48:38 10° ESE
CZ-2C R/B 4.1 17:42:41 10° NE 17:45:28 14° E 17:48:12 10° ESE
Cosmos 1805 3.3 17:42:36 10° S 17:46:27 61° E 17:50:21 10° NNE
STARLINK-1106 3.9 17:42:21 10° WNW 17:46:29 63° N 17:50:36 10° E
Cosmos 1553 Rocket 4.0 17:42:00 10° S 17:48:04 84° E 17:54:12 10° N
STARLINK-1108 3.7 17:45:07 10° WNW 17:49:08 73° SSW 17:53:08 10° ESE
Meteor 1-24 Rocket 3.7 17:44:52 10° N 17:50:28 70° ENE 17:55:50 10° SSE
STARLINK-1201 3.7 17:48:18 10° SW 17:51:19 36° SSE 17:54:22 10° ENE
STARLINK-1112 3.9 17:47:21 10° WNW 17:51:29 64° N 17:55:37 10° E
STARLINK-1138 4.5 17:49:13 10° SSW 17:52:47 30° SE 17:56:22 10° E
Meteor 1-15 Rocket 4.5 17:47:40 10° SSW 17:53:23 78° WNW 17:59:02 10° N
STARLINK-1071 3.7 17:49:37 10° WNW 17:53:38 69° SSW 17:57:39 10° ESE
SeaSat 1 3.3 17:49:06 10° NNE 17:53:56 56° NW 17:58:45 10° SW
STARLINK-1124 3.8 17:50:07 10° WNW 17:54:15 69° SSW 17:58:22 10° SE
ARGOS 3.3 17:49:07 10° SE 17:54:23 57° ENE 17:59:41 10° N
SL-8 R/B 3.8 17:50:25 10° WSW 17:55:10 68° S 17:59:55 10° E
STARLINK-1128 3.8 17:52:21 10° WNW 17:56:29 66° N 18:00:36 10° E
STARLINK-1066 3.8 17:53:45 10° WNW 17:56:47 42° SSW 17:59:47 10° SE
STARLINK-1081 3.8 17:54:14 10° WNW 17:57:12 41° SSW 18:00:10 10° SE
MOS 1 4.3 17:51:56 10° SSE 17:57:31 66° ENE 18:03:08 10° N
STARLINK-1143 4.4 17:53:54 10° SSW 17:57:32 32° SE 18:01:10 10° ENE
STARLINK-1070 3.9 17:54:41 10° WNW 17:57:39 41° SSW 18:00:37 10° SE
STARLINK-1209 3.0 17:55:10 10° SW 17:58:00 49° SSE 18:00:48 10° ENE
STARLINK-1069 3.9 17:55:05 10° WNW 17:58:05 41° SSW 18:01:04 10° SE
STARLINK-1110 3.8 17:54:08 10° WNW 17:58:09 65° SSW 18:02:08 10° SE
STARLINK-1085 3.9 17:55:32 10° WNW 17:58:32 40° SSW 18:01:31 10° SE
STARLINK-1228 2.9 17:56:01 10° SW 17:58:49 49° SSE 18:01:38 10° ENE
STARLINK-1086 3.9 17:56:03 10° WNW 17:59:00 40° SSW 18:01:57 10° SE
CZ-4 R/B 3.9 17:56:16 10° SSW 17:59:26 24° W 18:02:38 10° NW
STARLINK-1095 3.9 17:56:29 10° WNW 17:59:27 40° SSW 18:02:23 10° SE
STARLINK-1077 3.9 17:56:56 10° WNW 17:59:53 39° SSW 18:02:49 10° SE
STARLINK-1075 3.9 17:57:24 10° WNW 18:00:21 39° SSW 18:03:17 10° SE
STARLINK-1093 4.0 17:57:48 10° WNW 18:00:47 39° SSW 18:03:45 10° SE
STARLINK-1074 4.0 17:58:15 10° WNW 18:01:14 39° SSW 18:04:12 10° SE
STARLINK-1113 3.8 17:57:21 10° WNW 18:01:30 67° NNE 18:05:23 11° E
Cosmos 2315 Rocket 4.4 17:55:39 10° SSE 18:01:32 43° E 18:07:28 10° NNE
STARLINK-1087 4.0 17:58:45 10° WNW 18:01:42 38° SSW 18:04:37 10° SE
STARLINK-1088 4.0 17:59:12 10° WNW 18:02:08 38° SSW 18:05:04 10° SE
STARLINK-1115 4.0 17:59:37 10° WNW 18:02:35 38° SSW 18:05:33 10° SE
STARLINK-1076 4.0 18:00:04 10° WNW 18:03:02 38° SSW 18:05:59 10° SE
STARLINK-1092 4.0 18:00:32 10° WNW 18:03:29 37° SSW 18:06:26 10° SE
STARLINK-1080 4.0 18:01:01 10° WNW 18:03:56 37° SSW 18:06:51 10° SE
PKM 4.3 18:00:32 10° WSW 18:03:59 82° NNW 18:10:07 10° ENE
STARLINK-1090 4.0 18:01:28 10° WNW 18:04:23 36° SSW 18:07:16 10° SE
STARLINK-1089 4.1 18:01:55 10° WNW 18:04:50 36° SSW 18:07:44 10° SE
STARLINK-1107 4.1 18:02:22 10° WNW 18:05:17 36° SSW 18:08:10 10° SE
STARLINK-1119 3.8 18:02:19 10° WNW 18:06:28 69° NNE 18:10:09 13° E
Cosmos 1470 3.6 18:03:22 10° SSE 18:06:44 29° E 18:10:08 10° NNE
STARLINK-1122 3.9 18:03:17 10° WNW 18:07:16 59° SSW 18:10:59 12° SE
NOSS 2-1 (C) 3.6 18:04:08 10° SW 18:07:30 60° NW 18:11:19 10° NE
STARLINK-1241 4.1 18:04:19 10° SSW 18:08:02 37° SE 18:11:46 10° ENE
SL-08 RB Rocket 3.9 18:04:27 10° SE 18:08:49 52° ENE 18:13:17 10° N
ATLAS CENTAUR R/B 4.0 18:06:24 10° WNW 18:09:27 18° NNW 18:12:23 10° NNE
IRS-1A Rocket 4.4 18:05:42 10° SSE 18:11:22 84° WSW 18:17:11 10° NNW
STARLINK-1233 3.1 18:08:23 10° SW 18:11:26 50° SSE 18:14:11 12° ENE
STARLINK-1114 3.7 18:07:19 10° WNW 18:11:29 71° NNE 18:14:57 14° E
Resurs 1-3 4.3 18:07:30 10° SE 18:11:31 36° ENE 18:15:32 10° N
Cosmos 2369 Rocket 3.0 18:06:22 10° NNW 18:11:37 35° NE 18:16:02 14° ESE
NOSS 2-1 (D) 3.8 18:08:21 10° WSW 18:11:42 55° NW 18:15:31 10° NE
STARLINK-1126 4.0 18:07:55 10° WNW 18:11:53 55° SSW 18:15:25 12° SE
STARLINK-1212 3.1 18:08:51 10° SW 18:11:53 50° SSE 18:14:35 12° ENE
COSMOS 2428 4.2 18:06:47 10° WSW 18:12:11 41° NW 18:17:35 10° NNE
Cosmos 304 Rocket 4.1 18:07:30 10° NNW 18:12:17 68° WSW 18:17:01 10° SSE
STARLINK-1105 3.1 18:09:17 10° SW 18:12:20 51° SSE 18:15:03 13° ENE
SJ-6B 2.9 18:08:19 10° SSE 18:12:21 65° ENE 18:16:28 10° N
ISS -3.6 18:09:09 10° W 18:12:31 72° N 18:15:13 15° E
STARLINK-1239 4.0 18:08:50 10° SW 18:12:36 40° SE 18:16:12 11° ENE
STARLINK-1206 3.1 18:09:46 10° SW 18:12:48 51° SSE 18:15:28 13° ENE
STARLINK-1247 3.1 18:10:13 10° SW 18:13:15 51° SSE 18:15:53 13° ENE
CZ-2C R/B 2.9 18:08:23 10° SSE 18:13:27 82° ENE 18:18:19 10° NNW
STARLINK-1227 3.1 18:10:37 10° SW 18:13:40 52° SSE 18:16:19 13° ENE
STARLINK-1218 3.0 18:11:06 10° SW 18:14:09 52° SSE 18:16:45 13° ENE
Cosmos 1758 4.0 18:10:32 10° SSE 18:14:13 33° E 18:17:55 10° NNE
STARLINK-1226 3.0 18:11:34 10° SW 18:14:37 53° SSE 18:17:12 13° ENE
STARLINK-1254 3.0 18:11:58 10° SW 18:15:01 53° SSE 18:17:38 13° ENE
STARLINK-1215 3.0 18:12:27 10° SW 18:15:30 53° SSE 18:18:03 14° ENE
STARLINK-1231 3.0 18:12:54 10° SW 18:15:56 54° SSE 18:18:29 14° ENE
STARLINK-1082 4.1 18:12:29 10° WNW 18:16:25 52° SSW 18:19:48 13° SE
STARLINK-1130 (DARKSAT) 3.7 18:12:17 10° WNW 18:16:27 73° NNE 18:19:43 16° E
Cosmos 1048 Rocket 4.4 18:11:30 10° SSW 18:16:36 67° WNW 18:21:49 10° NNE
STARLINK-1232 3.0 18:13:47 10° SW 18:16:50 54° SSE 18:19:21 14° ENE
STARLINK-1240 4.0 18:13:22 10° SW 18:17:11 42° SE 18:20:38 12° ENE
STARLINK-1217 3.0 18:14:15 10° SW 18:17:18 55° SSE 18:19:47 14° ENE
Meteor 2-8 Rocket 4.4 18:11:28 10° S 18:17:36 79° E 18:23:45 10° NNE
STARLINK-1208 3.0 18:14:39 10° SW 18:17:44 55° SSE 18:20:15 14° ENE
STARLINK-1229 3.0 18:15:08 10° SW 18:18:11 56° SSE 18:20:38 15° ENE
Meteor 1-22 Rocket 4.0 18:13:06 10° S 18:18:24 81° E 18:23:42 10° NNE
STARLINK-1271 3.0 18:15:36 10° SW 18:18:39 56° SSE 18:21:06 15° ENE
Resurs 01 Rocket 2.5 18:15:31 14° ESE 18:18:45 31° ENE 18:22:39 10° N
STARLINK-1270 3.0 18:16:02 10° SW 18:19:06 56° SSE 18:21:32 15° ENE
STARLINK-1154 2.9 18:16:29 10° SW 18:19:32 57° SSE 18:21:57 15° ENE
STARLINK-1197 2.9 18:17:23 10° SW 18:20:26 58° SSE 18:22:49 15° ENE
STARLINK-1189 2.9 18:17:50 10° SW 18:20:53 58° SSE 18:23:16 16° ENE
STARLINK-1100 4.2 18:17:03 10° WNW 18:20:58 49° SSW 18:24:11 14° SE
STARLINK-1084 3.7 18:17:16 10° WNW 18:21:25 76° NNE 18:24:30 17° E
STARLINK-1187 2.8 18:18:38 10° SW 18:21:44 64° SSE 18:24:10 15° ENE
STARLINK-1216 3.9 18:17:56 10° SW 18:21:46 45° SSE 18:25:04 13° ENE
STARLINK-1188 2.9 18:18:43 10° SW 18:21:47 59° SSE 18:24:07 16° ENE
STARLINK-1198 2.9 18:18:58 10° SW 18:22:02 59° SSE 18:24:21 16° ENE
STARLINK-1235 2.8 18:19:18 10° WSW 18:22:26 71° SSE 18:24:55 15° ENE
Cosmos 494 Rocket 3.9 18:17:44 10° SSW 18:22:54 87° ESE 18:28:08 10° NNE
Cosmos 1733 3.3 18:19:48 10° SSW 18:23:35 79° WNW 18:27:22 10° N
STARLINK-1199 2.9 18:20:39 10° SW 18:23:44 61° SSE 18:26:02 17° ENE
STARLINK-1191 2.9 18:21:06 10° SW 18:24:12 61° SSE 18:26:29 17° ENE
CZ-4C R/B 4.0 18:19:34 10° W 18:24:34 31° NNW 18:30:27 10° NE
STARLINK-1210 2.9 18:21:33 10° SW 18:24:38 62° SSE 18:26:54 17° ENE
Cosmos 1709 Rocket 4.0 18:18:38 10° N 18:24:55 85° E 18:31:04 10° S
STARLINK-1221 2.9 18:22:00 10° SW 18:25:07 62° SSE 18:27:22 17° ENE
FREGAT/IRIS 3.0 18:22:46 10° S 18:25:27 55° W 18:28:09 10° NNW
STARLINK-1083 4.3 18:21:40 10° WNW 18:25:33 46° SSW 18:28:36 15° SE
STARLINK-1219 2.9 18:22:27 10° SW 18:25:33 62° SSE 18:27:47 17° ENE
STARLINK-67 2.3 18:23:20 10° WSW 18:25:55 84° NNW 18:27:36 19° ENE
STARLINK-1222 2.9 18:22:53 10° SW 18:25:59 63° SSE 18:28:13 17° ENE
SPOT 3 Rocket 3.6 18:21:02 10° SSE 18:26:11 65° ENE 18:31:23 10° N
STARLINK-1098 3.6 18:22:14 10° WNW 18:26:24 78° NNE 18:29:16 19° ESE
STARLINK-1237 3.8 18:22:32 10° SW 18:26:24 48° SSE 18:29:33 15° ENE
STARLINK-1211 2.9 18:23:20 10° SW 18:26:27 63° SSE 18:28:38 18° ENE
STARLINK-1214 2.8 18:23:48 10° SW 18:26:54 64° SSE 18:29:05 18° ENE
STARLINK-1245 2.8 18:24:17 10° SW 18:27:22 64° SSE 18:29:30 18° ENE
STARLINK-1238 2.8 18:24:42 10° SW 18:27:48 64° SSE 18:29:56 18° ENE
STARLINK-1205 2.8 18:25:39 10° WSW 18:28:44 65° SSE 18:30:48 19° ENE
STARLINK-1204 2.8 18:26:04 10° WSW 18:29:10 66° SSE 18:31:13 19° ENE
SL-14 R/B 3.5 18:25:20 10° NNW 18:29:25 76° W 18:33:25 10° S
Meteor 2-15 4.5 18:23:46 10° S 18:29:41 59° E 18:35:38 10° NNE
STARLINK-1125 4.4 18:26:17 10° WNW 18:30:09 44° SSW 18:33:02 16° SSE
Cosmos 2219 Rocket 4.2 18:25:33 10° WSW 18:30:31 30° NW 18:35:30 10° NNE
STARLINK-1202 3.7 18:27:06 10° SW 18:31:00 51° SSE 18:33:58 16° ENE
STARLINK-1123 3.6 18:27:14 10° WNW 18:31:24 81° NNE 18:34:05 21° ESE
Cosmos 1726 3.6 18:32:03 19° E 18:32:07 19° E 18:34:51 10° NE
MOS 1 Rocket 4.1 18:28:19 10° NNE 18:33:06 36° E 18:38:01 10° SSE
STARLINK-1109 4.4 18:30:35 10° WNW 18:34:25 41° SW 18:37:10 17° SSE
STARLINK-1246 3.7 18:32:01 10° SW 18:35:59 55° SSE 18:38:50 18° ENE
STARLINK-1097 3.6 18:32:12 10° WNW 18:36:22 84° NNE 18:38:50 24° ESE
Cosmos 2074 Rocket 4.3 18:31:12 10° N 18:37:14 47° ENE 18:42:02 16° SE
Cosmos 1943 Rocket 2.3 18:31:55 10° NNW 18:37:25 60° ENE 18:41:18 20° SE
Cosmos 292 Rocket 4.1 18:33:03 10° NNW 18:37:43 48° ENE 18:40:35 22° SE
STARLINK-1099 3.6 18:37:12 10° WNW 18:41:22 88° NNE 18:43:38 26° ESE
Ariane Rocket 4.2 18:37:25 10° S 18:42:15 44° W 18:47:06 10° NNW
STARLINK-1224 3.5 18:40:56 10° SW 18:44:55 61° SSE 18:47:23 22° ENE
Cosmos 1455 Rocket 3.9 18:42:05 10° SSW 18:46:19 52° WNW 18:50:37 10° N
STARLINK-1104 3.6 18:42:12 10° WNW 18:46:21 89° SSW 18:48:25 29° ESE
IRIDIUM 106 4.3 18:42:32 10° N 18:47:45 64° E 18:52:26 13° SSE
TSX-5 4.5 18:42:39 10° NW 18:48:16 72° WSW 18:51:27 18° SSE
STARLINK-1225 3.5 18:45:37 10° SW 18:49:37 65° SSE 18:51:55 24° ENE
STARLINK-1144 3.5 18:47:09 10° WNW 18:51:19 85° SSW 18:53:11 32° ESE
STARLINK-1203 3.4 18:47:36 10° WSW 18:51:32 70° SSE 18:53:42 25° ENE
Cosmos 1626 Rocket 3.9 18:47:57 10° NNW 18:52:21 68° W 18:56:41 10° S
SL-16 R/B 2.1 18:47:21 10° SSW 18:53:00 84° ESE 18:58:43 10° NNE
NOSS 2-2 (D) 4.5 18:47:47 10° NW 18:53:14 79° NE 18:57:59 23° SE
STARLINK-1230 3.5 18:50:13 10° SW 18:54:14 68° SSE 18:56:23 26° ENE
USA 186 3.9 18:51:43 10° SSW 18:54:46 29° W 18:57:47 10° NNW
Cosmos 1626 3.5 18:51:44 10° NNW 18:55:12 38° W 18:58:39 10° SSW
Spot 2 Rocket 4.1 18:52:55 26° ESE 18:55:13 41° ENE 19:00:00 10° N
Cosmos 1953 2.4 18:53:53 22° SSE 18:56:07 50° E 18:59:59 10° NNE
STARLINK-1103 3.6 18:52:08 10° WNW 18:56:17 82° SSW 18:57:58 35° ESE
Cosmos 1437 3.4 18:53:45 10° N 18:56:20 33° ENE 18:56:20 33° ENE
Cosmos 2084 Rocket 3.5 18:52:15 10° NW 18:56:45 79° NE 18:58:47 32° SE
STARLINK-1234 2.8 18:54:29 10° WSW 18:57:29 73° NNW 18:58:25 39° ENE
STARLINK-1243 3.4 18:54:54 10° WSW 18:58:55 72° SSE 19:00:53 29° ENE
Cosmos 1602 Rocket 3.8 18:55:27 10° NNW 18:59:55 73° W 19:03:54 13° S
Aureole 3 3.5 18:57:25 11° S 19:01:14 71° E 19:06:24 10° NNE
STARLINK-1101 3.6 18:57:08 10° WNW 19:01:17 78° SSW 19:02:46 38° SE
STARLINK-1236 3.4 18:59:33 10° WSW 19:03:35 76° SSE 19:05:22 32° ENE
DMSP B5D2-2 4.0 18:59:39 10° NNE 19:04:53 72° ESE 19:10:05 10° S
ATLAS 2AS CENTAUR R/B 3.4 18:58:26 10° NW 19:05:58 48° NNE 19:10:15 24° E
IGS 5A 4.4 19:05:47 29° ENE 19:06:14 30° ENE 19:09:54 10° N
STARLINK-1102 3.6 19:02:06 10° WNW 19:06:15 74° SSW 19:07:32 42° SE
H-2A R/B 3.6 19:01:52 10° SSW 19:06:41 35° W 19:11:26 10° NNW
Aureole 2 Rocket 2.3 19:06:25 10° NNW 19:09:56 76° ENE 19:10:31 58° SE
STARLINK-1111 3.6 19:07:05 10° WNW 19:11:12 70° SSW 19:12:19 46° SE
Terra 3.4 19:10:44 19° ENE 19:11:15 19° ENE 19:14:37 10° NNE
USA 234 3.2 19:06:22 10° ENE 19:12:56 74° SE 19:19:28 10° SW
STARLINK-1269 3.4 19:08:56 10° WSW 19:12:59 83° SSE 19:14:25 39° ENE
CZ-2C R/B 4.1 19:09:41 10° N 19:14:27 69° WNW 19:19:08 10° SSW
Cosmos 1603 4.0 19:12:01 24° SSE 19:14:48 40° ESE 19:20:00 10° NE
ERBS 4.0 19:11:57 10° W 19:15:02 31° NNW 19:16:57 18° NE
Meteor 1-16 Rocket 4.2 19:12:24 26° SSE 19:15:09 52° E 19:20:27 10° NNE
STARLINK-1073 3.7 19:12:04 10° WNW 19:16:11 66° SSW 19:17:06 49° SSE
Cosmos 1703 3.4 19:13:42 10° N 19:17:34 50° ENE 19:17:46 49° E
STARLINK-1200 3.4 19:13:37 10° WSW 19:17:41 87° SSE 19:18:57 43° ENE
Cosmos 1726 Rocket 4.2 19:18:06 36° ENE 19:18:06 36° ENE 19:21:46 10° NNE
Cosmos 1825 Rocket 3.4 19:14:54 10° N 19:19:22 74° E 19:20:41 44° SSE
STARLINK-1121 3.7 19:17:04 10° WNW 19:21:10 63° SSW 19:21:53 52° SSE
MetOp-B 4.1 19:19:53 34° SSE 19:22:17 75° ENE 19:27:40 10° NNW
STARLINK-1192 3.4 19:18:16 10° WSW 19:22:20 90° ENE 19:23:25 48° ENE
Cosmos 2237 Rocket 4.1 19:18:52 10° WSW 19:23:48 31° NW 19:28:47 10° NNE
COSMOS 2455 4.1 19:20:12 10° NNW 19:25:30 30° NE 19:28:01 23° ENE
STARLINK-1106 3.7 19:22:01 10° WNW 19:26:07 59° SSW 19:26:39 53° S
CZ-2C R/B 2.5 19:21:18 10° NNE 19:26:32 89° E 19:31:42 10° SSW
STARLINK-1244 3.5 19:23:03 10° WSW 19:27:07 87° NNW 19:28:01 53° ENE
STARLINK-1201 3.2 19:24:13 10° W 19:27:28 66° NNW 19:27:31 66° N
Meteor 1-11 4.4 19:22:19 10° N 19:28:04 58° ENE 19:29:47 42° SE
Cosmos 2184 Rocket 4.0 19:21:42 10° N 19:28:04 85° W 19:32:14 23° S
Cosmos 1992 Rocket 4.1 19:23:05 10° NNW 19:28:18 74° WSW 19:30:33 35° S
Cosmos 1758 Rocket 3.6 19:24:14 10° NNW 19:28:38 77° W 19:30:09 40° S
STARLINK-1112 3.8 19:27:01 10° WNW 19:31:05 56° SSW 19:31:27 53° S
STARLINK-1138 3.5 19:27:45 10° WSW 19:31:50 84° NNW 19:32:32 59° ENE
STARLINK-1209 3.9 19:29:58 10° W 19:32:14 42° NW 19:32:14 42° NW
STARLINK-1228 4.0 19:30:57 10° W 19:33:08 41° NW 19:33:08 41° NW
Meteor 2-17 Rocket 4.4 19:28:28 10° N 19:34:37 72° ENE 19:36:57 40° SSE
Cosmos 1953 Rocket 3.5 19:30:30 10° N 19:34:57 74° ENE 19:35:31 64° SE
STARLINK-1128 3.9 19:32:01 10° WNW 19:36:04 52° SSW 19:36:15 52° SSW
STARLINK-1143 3.5 19:32:32 10° WSW 19:36:37 81° NNW 19:37:08 65° NE
Cosmos 2251 Rocket 3.4 19:31:48 10° SSW 19:37:10 80° ESE 19:42:34 10° NNE
SL-8 R/B 3.7 19:32:50 10° W 19:37:33 62° SSW 19:38:02 58° SSE
Cosmos 1461 4.5 19:34:10 10° NNW 19:37:58 27° NNE 19:38:46 25° NE
Cosmos 1656 Rocket 3.7 19:34:11 10° NNW 19:39:53 68° ENE 19:41:14 50° ESE
STARLINK-1113 4.0 19:37:01 10° WNW 19:41:02 49° SSW 19:41:02 49° SSW
Cosmos 1606 Rocket 3.4 19:43:16 71° SSE 19:43:40 81° E 19:48:09 10° NNE
STARLINK-1119 4.2 19:42:00 10° WNW 19:45:48 45° SW 19:45:48 45° SW
STARLINK-1241 3.6 19:43:01 10° WSW 19:47:03 75° NNW 19:47:06 74° N
STARLINK-1233 4.3 19:44:10 10° W 19:46:21 38° WNW 19:46:21 38° WNW
STARLINK-1212 4.4 19:44:38 10° W 19:46:46 37° WNW 19:46:46 37° WNW
STARLINK-1105 4.4 19:45:04 10° W 19:47:13 37° WNW 19:47:13 37° WNW
STARLINK-1206 4.4 19:45:34 10° W 19:47:38 35° WNW 19:47:38 35° WNW
Cosmos 2154 Rocket 4.0 19:42:35 10° N 19:49:00 90° W 19:51:33 40° S
STARLINK-1247 4.5 19:46:01 10° W 19:48:03 34° WNW 19:48:03 34° WNW
ERS-1 Rocket 3.0 19:48:48 57° E 19:49:11 59° ENE 19:54:09 10° N
ISS -2.3 19:46:01 10° WNW 19:48:11 33° W 19:48:11 33° W
STARLINK-1227 4.5 19:46:25 10° W 19:48:30 35° WNW 19:48:30 35° WNW
ATLAS CENTAUR R/B 4.2 19:48:41 10° NNW 19:49:58 11° N 19:51:13 10° NNE
STARLINK-1114 4.4 19:47:02 10° WNW 19:50:36 42° SW 19:50:36 42° SW
USA 245 4.0 19:50:07 52° S 19:51:23 81° WSW 19:57:15 10° NNW
STARLINK-1239 3.7 19:47:37 10° W 19:51:30 71° NW 19:51:30 71° NW
BREEZE-M DEB (TANK) 4.3 19:49:12 10° W 19:53:10 39° WSW 19:53:10 39° WSW
Resurs 01 Rocket 3.0 19:53:05 22° SW 19:55:11 34° W 19:59:14 10° NNW
SPOT 5 3.1 19:56:05 49° NE 19:56:05 49° NE 19:59:51 10° N
Cosmos 2369 Rocket 2.8 19:50:21 10° NW 19:55:53 52° WSW 19:57:50 36° SSW
STARLINK-1240 3.8 19:52:14 10° W 19:55:56 66° NW 19:55:56 66° NW
SL-24 R/B 4.4 19:52:10 10° N 19:57:16 75° E 19:57:55 66° SSE
Cosmos 2263 4.4 19:54:06 10° NW 19:59:40 64° WSW 20:01:00 49° SSW
STARLINK-1216 4.0 19:56:53 10° W 20:00:23 60° WNW 20:00:23 60° WNW
Cosmos 1908 4.2 20:02:47 42° N 20:02:47 42° N 20:05:27 10° N
Cosmos 967 Rocket 4.4 19:55:48 10° SSW 20:02:10 69° ESE 20:08:39 10° NE
Cosmos 962 Rocket 4.3 19:58:53 10° N 20:05:08 78° E 20:06:15 61° SSE
STARLINK-1237 4.2 20:01:33 10° W 20:04:52 54° WNW 20:04:52 54° WNW
Landsat 7 3.8 20:06:34 68° SW 20:06:55 72° WSW 20:11:42 10° NNW
Cosmos 1726 3.5 20:06:30 34° W 20:07:06 37° WNW 20:10:37 10° N
Nadezhda 1 Rocket 4.1 20:06:17 28° SSW 20:09:53 77° W 20:16:19 10° N
STARLINK-1202 4.4 20:06:11 10° W 20:09:18 49° WNW 20:09:18 49° WNW
Cosmos 921 Rocket 4.0 20:06:21 10° NNW 20:09:20 38° NNE 20:09:20 38° NNE
Cosmos 2228 3.4 20:11:03 57° W 20:11:14 57° WNW 20:15:30 10° N
SL-8 Rocket 4.0 20:05:10 10° N 20:11:24 61° ENE 20:11:56 59° E
CZ-4C R/B 4.3 20:09:48 10° NW 20:15:04 27° N 20:21:07 10° ENE
Cosmos 2366 rocket 4.1 20:12:29 10° N 20:18:33 55° ENE 20:18:37 55° ENE
Cosmos 1340 Rocket 4.5 20:22:10 28° NNE 20:22:10 28° NNE 20:24:12 10° NNE
Cosmos 1943 3.1 20:19:28 63° SSW 20:20:28 88° WNW 20:26:12 10° NNE
Cosmos 1943 Rocket 3.8 20:16:16 10° NW 20:20:47 26° WSW 20:22:51 21° SW
Cosmos 2058 Rocket 3.7 20:24:09 54° N 20:24:09 54° N 20:27:44 10° N
NOSS 3-4 (A) 3.7 20:17:42 10° NW 20:24:37 88° NE 20:25:57 63° SE
NOSS 3-4 (C) 3.7 20:17:47 10° NW 20:24:43 87° NE 20:26:03 63° SE
SPOT 1/Viking Rocket 4.0 20:32:06 50° WSW 20:32:30 52° W 20:37:37 10° NNW
Mayak 1.3 20:29:52 10° NNE 20:30:20 13° NE 20:30:20 13° NE
NOSS 3-3 (A) 4.0 20:29:14 10° SW 20:35:12 80° NW 20:42:03 10° NE
Cosmos 1959 Rocket 4.4 20:28:52 10° N 20:35:15 74° ENE 20:35:20 74° E
NOSS 3-3 (C) 4.0 20:29:19 10° SW 20:35:18 81° NW 20:42:09 10° NE
SL-16 R/B 4.4 20:33:16 10° W 20:37:51 24° NW 20:42:27 10° NNE
Cosmos 1697 Rocket 4.4 20:39:12 10° NNW 20:43:36 22° NE 20:44:20 22° NE
Terra 2.5 20:49:36 51° NW 20:49:36 51° NW 20:53:18 10° NNW
Cosmos 2341 Rocket 4.4 20:46:47 10° NNW 20:52:58 56° W 20:53:50 52° WSW
USA 234 3.7 20:49:28 10° ENE 20:55:53 59° NNW 21:02:17 10° W
ATLAS 2AS CENTAUR R/B 2.9 20:49:47 10° NW 20:57:19 64° SW 20:57:41 63° SW
Cosmos 407 Rocket 4.4 21:04:45 43° N 21:04:45 43° N 21:08:14 10° NNE
Cosmos 1980 Rocket 4.0 21:04:19 10° N 21:08:26 20° NE 21:09:08 20° NE
Aureole 1 Rocket 4.5 21:07:14 43° SW 21:09:49 68° WNW 21:16:15 10° NNE
COSMOS 2455 3.1 21:06:02 10° NW 21:11:09 64° NW 21:11:09 64° NW
Cosmos 2218 Rocket 4.4 21:15:42 10° NNW 21:21:25 54° W 21:21:25 54° W
ATLAS CENTAUR R/B 4.1 21:27:43 10° NNW 21:29:15 15° N 21:29:15 15° N
BREEZE M DEB (TANK) 4.5 21:44:06 65° ESE 21:44:06 65° ESE 22:02:36 10° ENE
ATLAS 5 CENTAUR R/B 4.5 21:57:41 12° NE 21:57:41 12° NE 21:58:01 10° NE
CZ-4C R/B 3.6 21:58:46 10° NW 22:05:14 46° NNE 22:06:33 43° ENE
Mayak 1.4 22:05:33 10° N 22:06:54 18° NNW 22:06:54 18° NNW
Cosmos 2344 4.4 22:06:56 10° NW 22:15:57 69° NE 22:20:03 45° ESE
Cosmos 1697 Rocket 4.0 22:22:42 10° NNW 22:26:03 37° NNW 22:26:03 37° NNW
SL-16 R/B 4.0 22:24:37 10° NNW 22:29:13 24° NE 22:29:37 24° NE
USA 234 3.9 22:32:08 10° ENE 22:38:24 51° N 22:44:40 10° WNW
Cosmos 2322 Rocket 3.9 22:39:36 10° NNW 22:44:18 26° NE 22:44:38 26° NE
Cosmos 1980 Rocket 3.6 22:47:45 10° NNW 22:50:55 35° NNW 22:50:55 35° NNW
COSMOS 2406 4.4 23:07:44 39° N 23:07:44 39° N 23:11:24 10° NNE
Cosmos 2082 Rocket 3.6 23:15:19 33° NE 23:15:19 33° NE 23:18:23 10° NNE
SL-16 R/B 3.5 23:21:37 40° ENE 23:21:40 40° ENE 23:27:26 10° N
ATLAS 5 CENTAUR R/B 3.8 23:39:11 25° N 23:39:11 25° N 23:42:49 10° NE
Cosmos 1833 Rocket 3.8 23:45:10 41° N 23:45:10 41° N 23:49:07 10° NNE
